OneWeb SL0514

operational
NORAD ID: 54132 Int'l Des: 2022-138 Owner: ONEWEBN Country: UK Constellation: oneweb
LEOCIRCULARPOLARONEWEB_TYPE

About OneWeb SL0514

Description loading...

Live Position

Loading 3D Globe...

Upcoming Passes

Altitude History

Altitude vs Time

uPlot chart will show altitude changes over time

Two-Line Element Set

1 54132U 22138V 26094.63019404 .00000074 00000-0 15329-3 0 9993
2 54132 87.9182 319.6299 0001626 83.3251 276.8067 13.19726955167129
Epoch: Apr 4, 2026 • Age: 13 hours

Current Status

Altitude 1191.2 km
Velocity 7.26 km/s
Sub-Earth Point 41.71°N, 124.23°W
Launch Date Oct 22, 2022
Age 3.4 years
Type internet

Technical Details

Classification Payload
Mass 148.00 kg
Dry Mass 140.00 kg
Total Mass 148.00 kg
Length 1.30 m
Diameter 1.00 m
Span 5.00 m
Shape Trapezoid+2 pan
Manufacturer ONEWUS
Bus Type ARROW
Phase Status In Orbit
Owner/State ONEWEBN/UK

Large Constellations

Loading constellations...